Terminal Aerodrome Forecast
Issued by NWS Paducah, KY

Home | Current Version | Previous Version | Text Only | Print | Product List | Glossary On
Versions: 1 2 3 4 5 6 7 8 9 10 11 12 13 14
640
FTUS43 KPAH 041547 AAA
TAFEVV
TAF AMD
KEVV 041547Z 0416/0512 09006KT 6SM -RA BR SCT007 BKN012
     FM041800 18005KT 2SM -RADZ BR SCT007 OVC015
     FM050000 27004KT 4SM BR SCT007 OVC020
     FM050600 30004KT P6SM FEW025 OVC250=

USA.gov is the U.S. government's official web portal to all federal, state and local government web resources and services.